Retour au catalogue

NOAA 16 DEB

ActifSSO
NORAD 42425·DEBRIS·🇺🇸 United States

Lancé Sep 21, 2000 depuis Vandenberg Space Force Base

Loading…

Prochains Passages (prochaines 24 heures)

TLE

FraisSource: Space-Track

Époque: Sep 12, 2026, 07:55 UTC

1 42425U 00055TV  26255.33040066  .00001605  00000-0  77933-3 0  9993
2 42425  98.6959 291.0125 0022551 319.8064  40.1443 14.19594359519103

Suivez NOAA 16 DEB en temps réel avec AllMySat

Download on the App Store